| time (UTC) | temp F | wind direction | speed MPH | gust MPH | rain 1hr in | rain 24hr in | rain mn in | humidity % | barometer mb |
| 20260509221536 | 87 | 360 | 0.0 | 4.0 | 0.00 | 0.00 | 0.00 | 50 | 1001.0 |
| 20260509220038 | 87 | 360 | 2.0 | 5.0 | 0.00 | 0.00 | 0.00 | 49 | 1000.9 |
| 20260509214537 | 87 | 360 | 2.0 | 4.0 | 0.00 | 0.00 | 0.00 | 47 | 1001.1 |
| 20260509213033 | 86 | 360 | 1.0 | 8.0 | 0.00 | 0.00 | 0.00 | 48 | 1001.2 |
| 20260509211534 | 86 | 360 | 2.0 | 8.0 | 0.00 | 0.00 | 0.00 | 49 | 1001.3 |
| 20260509210031 | 86 | 360 | 0.0 | 5.0 | 0.00 | 0.00 | 0.00 | 46 | 1001.6 |
| 20260509204529 | 85 | 360 | 0.0 | 6.0 | 0.00 | 0.00 | 0.00 | 46 | 1001.8 |
| 20260509203031 | 85 | 360 | 3.0 | 10.0 | 0.00 | 0.00 | 0.00 | 46 | 1002.0 |
| 20260509201528 | 86 | 360 | 2.0 | 8.0 | 0.00 | 0.00 | 0.00 | 44 | 1002.2 |
| 20260509200026 | 86 | 360 | 2.0 | 9.0 | 0.00 | 0.00 | 0.00 | 47 | 1002.2 |
| 20260509194529 | 85 | 36 | 2.0 | 8.0 | 0.00 | 0.00 | 0.00 | 47 | 1002.5 |
| 20260509193023 | 85 | 360 | 0.0 | 3.0 | 0.00 | 0.00 | 0.00 | 45 | 1002.6 |
| 20260509191520 | 84 | 14 | 3.0 | 8.0 | 0.00 | 0.00 | 0.00 | 43 | 1002.7 |
| 20260509190018 | 84 | 360 | 2.0 | 6.0 | 0.00 | 0.00 | 0.00 | 50 | 1002.8 |
| 20260509184527 | 83 | 360 | 2.0 | 6.0 | 0.00 | 0.00 | 0.00 | 53 | 1003.0 |
| 20260509183017 | 83 | 360 | 3.0 | 6.0 | 0.00 | 0.00 | 0.00 | 48 | 1003.2 |
| 20260509181513 | 83 | 360 | 2.0 | 6.0 | 0.00 | 0.00 | 0.00 | 56 | 1003.4 |
| 20260509180009 | 82 | 360 | 2.0 | 6.0 | 0.00 | 0.00 | 0.00 | 56 | 1003.5 |
| 20260509174508 | 81 | 42 | 3.0 | 8.0 | 0.00 | 0.00 | 0.00 | 56 | 1003.6 |
| 20260509173004 | 80 | 360 | 3.0 | 9.0 | 0.00 | 0.00 | 0.00 | 58 | 1003.6 |
| 20260509171501 | 80 | 360 | 2.0 | 6.0 | 0.00 | 0.00 | 0.00 | 61 | 1003.8 |
| 20260509164556 | 78 | 360 | 2.0 | 9.0 | 0.00 | 0.00 | 0.00 | 61 | 1004.1 |
| 20260509163109 | 78 | 360 | 6.0 | 10.0 | 0.00 | 0.00 | 0.00 | 63 | 1004.2 |
| 20260509161550 | 77 | 360 | 6.0 | 11.0 | 0.00 | 0.00 | 0.00 | 64 | 1004.2 |
| 20260509160050 | 76 | 360 | 4.0 | 11.0 | 0.00 | 0.00 | 0.00 | 66 | 1004.2 |
| 20260509154548 | 75 | 360 | 6.0 | 12.0 | 0.00 | 0.00 | 0.00 | 66 | 1004.2 |
| 20260509153042 | 74 | 360 | 4.0 | 11.0 | 0.00 | 0.00 | 0.00 | 65 | 1004.2 |
| 20260509151539 | 74 | 360 | 5.0 | 10.0 | 0.00 | 0.00 | 0.00 | 68 | 1004.2 |
| 20260509150036 | 73 | 360 | 2.0 | 11.0 | 0.00 | 0.00 | 0.00 | 72 | 1004.3 |
| 20260509144535 | 71 | 360 | 5.0 | 8.0 | 0.00 | 0.00 | 0.00 | 70 | 1004.4 |
| 20260509143028 | 70 | 360 | 6.0 | 10.0 | 0.00 | 0.00 | 0.00 | 73 | 1004.4 |
| 20260509141536 | 69 | 350 | 3.0 | 8.0 | 0.00 | 0.00 | 0.00 | 81 | 1004.4 |
| 20260509140023 | 68 | 360 | 4.0 | 8.0 | 0.00 | 0.00 | 0.00 | 86 | 1004.6 |
| 20260509134522 | 67 | 360 | 3.0 | 8.0 | 0.00 | 0.00 | 0.00 | 86 | 1004.7 |
| 20260509133022 | 66 | 360 | 4.0 | 6.0 | 0.00 | 0.00 | 0.00 | 86 | 1004.7 |
| 20260509131524 | 66 | 360 | 3.0 | 5.0 | 0.00 | 0.00 | 0.00 | 86 | 1004.7 |
| 20260509130021 | 65 | 360 | 2.0 | 5.0 | 0.00 | 0.00 | 0.00 | 87 | 1004.5 |
| 20260509124520 | 64 | 360 | 3.0 | 6.0 | 0.00 | 0.00 | 0.00 | 88 | 1004.5 |
| 20260509123021 | 63 | 360 | 3.0 | 6.0 | 0.00 | 0.00 | 0.00 | 86 | 1004.4 |
| 20260509121520 | 63 | 360 | 3.0 | 5.0 | 0.00 | 0.00 | 0.00 | 86 | 1004.2 |
| 20260509120018 | 63 | 360 | 2.0 | 5.0 | 0.00 | 0.00 | 0.00 | 85 | 1003.9 |
| 20260509114518 | 63 | 360 | 2.0 | 5.0 | 0.00 | 0.00 | 0.00 | 84 | 1003.7 |
| 20260509113017 | 63 | 360 | 2.0 | 5.0 | 0.00 | 0.00 | 0.00 | 84 | 1003.5 |
| 20260509111526 | 63 | 360 | 1.0 | 3.0 | 0.00 | 0.00 | 0.00 | 83 | 1003.1 |
| 20260509110018 | 63 | 360 | 2.0 | 4.0 | 0.00 | 0.00 | 0.00 | 80 | 1003.1 |
| 20260509104526 | 64 | 360 | 1.0 | 4.0 | 0.00 | 0.00 | 0.00 | 78 | 1003.1 |
| 20260509103015 | 65 | 215 | 2.0 | 4.0 | 0.00 | 0.00 | 0.00 | 76 | 1003.3 |
| 20260509101519 | 66 | 360 | 2.0 | 4.0 | 0.00 | 0.00 | 0.00 | 74 | 1003.4 |
| 20260509100020 | 67 | 360 | 2.0 | 6.0 | 0.00 | 0.00 | 0.00 | 72 | 1003.6 |
| 20260509094513 | 67 | 360 | 2.0 | 11.0 | 0.00 | 0.01 | 0.00 | 72 | 1003.5 |
| 20260509093016 | 68 | 14 | 2.0 | 9.0 | 0.00 | 0.01 | 0.00 | 73 | 1002.8 |
| 20260509091511 | 68 | 360 | 4.0 | 12.0 | 0.00 | 0.01 | 0.00 | 67 | 1001.6 |
| 20260509090009 | 67 | 360 | 2.0 | 10.0 | 0.00 | 0.01 | 0.00 | 67 | 1001.0 |
| 20260509084507 | 65 | 182 | 2.0 | 10.0 | 0.00 | 0.01 | 0.00 | 73 | 998.8 |
| 20260509083001 | 64 | 217 | 3.0 | 11.0 | 0.00 | 0.01 | 0.00 | 80 | 999.3 |
| 20260509081602 | 62 | 268 | 4.0 | 15.0 | 0.00 | 0.01 | 0.00 | 85 | 1000.4 |
| 20260509080059 | 63 | 255 | 0.0 | 4.0 | 0.00 | 0.01 | 0.00 | 87 | 1000.7 |
| 20260509074551 | 64 | 288 | 0.0 | 2.0 | 0.00 | 0.01 | 0.00 | 87 | 1001.4 |
| 20260509073049 | 63 | 360 | 0.0 | 3.0 | 0.00 | 0.01 | 0.00 | 87 | 1002.6 |
| 20260509071547 | 63 | 360 | 5.0 | 9.0 | 0.00 | 0.01 | 0.00 | 87 | 1002.9 |
| 20260509070042 | 64 | 360 | 4.0 | 11.0 | 0.00 | 0.01 | 0.00 | 88 | 1004.5 |
| 20260509064538 | 65 | 360 | 4.0 | 13.0 | 0.00 | 0.01 | 0.00 | 90 | 1004.6 |
| 20260509063038 | 67 | 252 | 7.0 | 17.0 | 0.00 | 0.01 | 0.00 | 92 | 1005.0 |
| 20260509061542 | 67 | 360 | 3.0 | 6.0 | 0.00 | 0.01 | 0.00 | 92 | 1005.7 |
| 20260509060034 | 67 | 323 | 1.0 | 5.0 | 0.00 | 0.01 | 0.00 | 92 | 1005.6 |
| 20260509054530 | 67 | 329 | 2.0 | 5.0 | 0.00 | 0.01 | 0.00 | 92 | 1005.4 |
| 20260509053049 | 67 | 201 | 3.0 | 5.0 | 0.00 | 0.01 | 0.00 | 92 | 1004.8 |
| 20260509051526 | 67 | 360 | 3.0 | 8.0 | 0.00 | 0.01 | 0.00 | 92 | 1005.3 |
| 20260509050023 | 67 | 360 | 3.0 | 8.0 | 0.00 | 0.01 | 0.00 | 91 | 1004.8 |
| 20260509044522 | 67 | 140 | 0.0 | 2.0 | 0.00 | 0.01 | 0.01 | 90 | 1003.8 |
| 20260509043021 | 67 | 186 | 0.0 | 4.0 | 0.00 | 0.01 | 0.01 | 90 | 1003.6 |
| 20260509041521 | 67 | 90 | 0.0 | 3.0 | 0.00 | 0.01 | 0.01 | 90 | 1003.6 |
| 20260509040021 | 67 | 360 | 2.0 | 3.0 | 0.00 | 0.01 | 0.01 | 89 | 1003.5 |
| 20260509034521 | 68 | 84 | 1.0 | 3.0 | 0.00 | 0.01 | 0.01 | 89 | 1003.7 |
| 20260509033019 | 68 | 137 | 0.0 | 5.0 | 0.00 | 0.01 | 0.01 | 88 | 1003.0 |
| 20260509031519 | 68 | 155 | 2.0 | 6.0 | 0.00 | 0.01 | 0.01 | 88 | 1002.6 |
| 20260509030019 | 68 | 360 | 2.0 | 8.0 | 0.00 | 0.01 | 0.01 | 88 | 1002.2 |
| 20260509024521 | 68 | 360 | 3.0 | 10.0 | 0.00 | 0.01 | 0.01 | 88 | 1001.7 |
| 20260509023017 | 68 | 360 | 3.0 | 10.0 | 0.00 | 0.01 | 0.01 | 87 | 1001.3 |
| 20260509021516 | 69 | 182 | 4.0 | 10.0 | 0.00 | 0.01 | 0.01 | 86 | 1001.4 |
| 20260509020016 | 69 | 360 | 4.0 | 9.0 | 0.00 | 0.01 | 0.01 | 85 | 1001.0 |
| 20260509014518 | 70 | 360 | 4.0 | 6.0 | 0.00 | 0.01 | 0.01 | 83 | 1001.4 |
| 20260509013015 | 70 | 360 | 2.0 | 5.0 | 0.00 | 0.01 | 0.01 | 82 | 1001.7 |
| 20260509011515 | 71 | 360 | 2.0 | 5.0 | 0.00 | 0.01 | 0.01 | 81 | 1001.8 |
| 20260509010020 | 71 | 360 | 3.0 | 8.0 | 0.00 | 0.01 | 0.01 | 81 | 1001.6 |
| 20260509004528 | 72 | 158 | 4.0 | 10.0 | 0.00 | 0.01 | 0.01 | 80 | 1001.2 |
| 20260509003013 | 72 | 166 | 3.0 | 9.0 | 0.00 | 0.01 | 0.01 | 79 | 1001.1 |
| 20260509001511 | 73 | 170 | 3.0 | 10.0 | 0.00 | 0.01 | 0.01 | 78 | 1001.1 |
| 20260509000110 | 73 | 360 | 5.0 | 9.0 | 0.00 | 0.01 | 0.01 | 77 | 1001.3 |
| 20260508234507 | 74 | 360 | 6.0 | 11.0 | 0.00 | 0.01 | 0.01 | 75 | 1001.5 |
| 20260508233007 | 74 | 175 | 5.0 | 12.0 | 0.00 | 0.01 | 0.01 | 76 | 1001.6 |
| 20260508231508 | 74 | 360 | 5.0 | 13.0 | 0.00 | 0.01 | 0.01 | 75 | 1001.7 |
| 20260508230005 | 74 | 360 | 5.0 | 10.0 | 0.00 | 0.01 | 0.01 | 75 | 1001.7 |
| 20260508224504 | 73 | 360 | 8.0 | 14.0 | 0.00 | 0.01 | 0.01 | 74 | 1001.7 |
| 20260508223010 | 74 | 360 | 9.0 | 15.0 | 0.00 | 0.01 | 0.01 | 73 | 1001.8 |